THOR ABLESTAR DEB, 330

Orbit data source: Space-Track

THOR ABLESTAR DEB, 330 is space debris in LEO originally from a launch on Thu, 29 Jun 1961 UTC launched from the Air Force Eastern Test Range (AFETR). Debris objects in space refer to the collection of defunct objects orbiting the Earth. Examples of debris include non-operational satellites, rocket bodies, and fragments generated from explosions, collisions, or faulty payload assembly.

Loading next visibility...
Identifier
330, 1961-015DG
Orbit
LEO
Country
Flag of USUS
Related business
Manufacturer
Unknown
Mission
Spacecraft
Bus & Motor
Unknown
Mass
Unknown
Launch date (UTC)
1961-06-29 (64 years ago)
Launch vehicle
Unknown
Launch site
Air Force Eastern Test Range (AFETR)
Object type
Payload
Rocket body
Debris
Shape & HBR
Unknown shape, 0.1 m
Radar Cross Section
Small (<0.1 m²)

Expand to show TLE details & history
Last TLE update: 7 hours ago

TLE from 7 hours ago
0 THOR ABLESTAR DEB
1 00330U 61015DG  25289.55401809  .00001163  00000-0  74316-3 0  9992
2 00330  66.9793 190.0461 0053961 296.6058  62.9507 14.06273335262440
Epoch: 2025-10-16T13:17Z
TLE epoch observation values (Epoch: 2025-10-16T13:17:47.162Z)
Latitude
-0.00007°
Longitude
-34.71251°
Altitude
856.632 km
Speed
7.434 km/s
True Right ascension
12h 40m 11s
True Declination
0° 00' 00"
Sunlit
Object was in daylight at epoch
Visualization orbit readout
Latitude
Unknown
Longitude
Unknown
Altitude
Unknown
Speed
Unknown
Apparent Right ascension
Unknown
Apparent Declination
Unknown
Sunlit
N/A
Visualization observer readout
Local Sidereal Time
15:12:18
Azimuth
Unknown
Elevation
Unknown
Doppler factor
Unknown
Orbital elements
Apogee altitude
909.628 km
Perigee altitude
831.399 km
Semi-major axis
7,248.65 km
Eccentricity
0.0054
Inclination
66.9793°
RAAN
190.0461°
Arg. of periapsis
296.6058°
True anomaly
63.5031°
Mean anomaly
62.9507°
Eccentric anomaly
63.22673°
Mean motion
3.51688 °/min
Orbital period
102.36 mins
BSTAR
0.00074316

Documentation

Showing up to 5 results
|